Tracking 28125 objects as of 4-Oct-2023
HD Live streaming from Space Station
objects crossing your sky now

STARLINK-6307

Track STARLINK-6307 now!
10-day predictions
STARLINK-6307 is classified as:


NORAD ID: 56529
Int'l Code: 2023-065AC
Perigee: 565.9 km
Apogee: 566.6 km
Inclination: 43.0 °
Period: 95.8 minutes
Semi major axis: 6937 km
RCS: Unknown
Launch date: May 14, 2023
Source: United States (US)
Launch site: AIR FORCE EASTERN TEST RANGE (AFETR)
Your satellite tracking list
Your tracking list is empty




NASA's NSSDC Master Catalog

Two Line Element Set (TLE):
1 56529U 23065AC  23277.15902545  .00001477  00000-0  12437-3 0  9994
2 56529  43.0003 340.2064 0000504 171.2637 188.8214 15.02530091 22488
Source of the keplerian elements: AFSPC